Regional Weather Roundup
Issued by NWS Midland/Odessa, TX

Skip options and go directly to product.
Home | Oldest Version | Previous Version | Current Version | All | Text Only | Save Text | Print | Product List | Glossary On

Skip product version selection by date and time.   
345
ASUS44 KMAF 301310
RWRMAF
MIDLAND AREA WEATHER ROUNDUP
NATIONAL WEATHER SERVICE MIDLAND TX
800 AM CDT FRI SEP 30 2016

...IN SOUTHWEST TEXAS AND SOUTHEAST NEW MEXICO...

CITY           SKY/WX    TMP DP  RH WIND       PRES   REMARKS
ALPINE         CLOUDY    58  53  85 CALM      30.35S
ANDREWS        FAIR      52  49  87 CALM      30.28S
ARTESIA        CLEAR     52  52 100 NW7       30.29R
BIG SPRING       N/A    N/A N/A N/A CALM      30.29S
CARLSBAD       CLEAR     53  50  89 SW3       30.27R
DRYDEN           N/A     59  52  77 NE8       30.23S
FORT STOCKTON  CLEAR     59  52  77 SE7       30.25S
GUAD PASS      MOCLDY    57  47  69 NE14      30.36R
HOBBS          CLEAR     48  48 100 CALM      30.31R
MARFA          PTCLDY    54  51  90 N5        30.33R
MIDLAND AIRPK  PTCLDY    57  49  73 CALM      30.28S
MIDLAND INTL   PTCLDY    56  48  74 SE6       30.26S
ODESSA         PTCLDY    56  47  71 SE7       30.28R
PECOS          CLEAR     57  52  84 CALM      30.24R
PRESIDIO       FAIR      69  54  58 NE10G17   30.21R
SEMINOLE       CLEAR     52  48  86 CALM      30.30R
SNYDER           N/A     53  47  80 NE3       30.27S
WINK           CLEAR     55  49  80 E5        30.25R
$$
...OTHER STATIONS IN TEXAS...

CITY           SKY/WX    TMP DP  RH WIND       PRES   REMARKS
ABILENE        CLEAR     52  49  89 S3        30.27R
AMARILLO       CLEAR     50  43  77 S12       30.27F
AUSTIN         PTCLDY    56  53  90 CALM      30.20R
BROWNSVILLE    CLEAR     73  70  90 N6        30.09R
CORPUS CHRISTI PTCLDY    65  59  81 N8        30.14R
DALLAS FTW     CLEAR     60  53  77 N7        30.22R
DEL RIO        CLEAR     61  59  93 CALM      30.22R
EL PASO        TSTM      58  56  93 N15       30.30R FOG
HOUSTON INT    PTCLDY    61  55  81 VRB5      30.17R
LUBBOCK        PTCLDY    50  46  86 SE3       30.29R
SAN ANGELO     CLEAR     51  49  92 CALM      30.26R
SAN ANTONIO    PTCLDY    59  51  75 NW5       30.21R
WACO           CLEAR     51  50  96 W5        30.22R
WICHITA FALLS  NOT AVBL
$$
...OTHER LOCATIONS IN NEW MEXICO...

CITY           SKY/WX    TMP DP  RH WIND       PRES   REMARKS
ALAMAGORDO     LGT RAIN  61  57  88 SE10      30.30S
ALBUQUERQUE    CLOUDY    59  55  87 E8        30.33F
CANNON AFB     CLOUDY    52  50  92 SW6       30.29S
CLOVIS         CLEAR     48  43  81 SW5       30.29S
HOLLOMAN AFB   LGT RAIN  61  61 100 SW7       30.27F
ROSWELL        CLEAR     53  47  79 W5        30.28R
RUIDOSO        LGT RAIN  52  50  93 S12       30.41F
SANTA FE       CLOUDY    51  48  89 CALM      30.37R
TRUTH OR CONSE MOCLDY    58  56  93 SW5       30.32R
TUCUMCARI      CLEAR     56  48  74 SW8       30.23F
$$

USA.gov is the U.S. government's official web portal to all federal, state and local government web resources and services.